Simultaneous Nadir Overpasses (SNOs) Predictions

Prediction of SNOs between GOES-15 and NOAA-20 Satellite Orbit:

Table of predicted SNOs for the next 14.0 days since TLE Epoch: 10/25/2019
Index Date Time (GOES-15) GOES-15 Lat,Lon NOAA-20 Lat,Lon Distance(km) Time Diff (sec)
1 10/26/2019 22:08:03 -0.17,-128.33 -0.80,-131.07 313.45 80
2 10/27/2019 21:51:59 -0.18,-128.35 0.21,-126.54 205.44 80
3 10/29/2019 10:11:08 0.16,-128.42 0.89,-131.83 387.67 80
4 10/30/2019 09:55:03 0.17,-128.44 -0.06,-127.28 130.78 80
5 10/31/2019 22:14:20 -0.14,-128.41 -1.07,-132.60 477.03 80
6 11/01/2019 21:58:15 -0.16,-128.43 -0.06,-128.07 41.20 80
7 11/04/2019 09:58:39 0.14,-128.51 0.21,-128.81 34.70 80
8 11/05/2019 09:42:35 0.15,-128.52 -0.80,-124.28 483.15 80
9 11/06/2019 22:01:51 -0.12,-128.49 -0.39,-129.58 125.35 80
10 11/07/2019 21:45:47 -0.13,-128.50 0.63,-125.05 392.53 80




NCC Satellite Simultaneous Nadir Overpasses (SNOs) Prediction Service
